This is the latest recevied weather packets stored in our database for station/object KD7AWQ. If no packets are shown the sender has not sent any weather packets the latest 10 day(s).
| Time | Temp. | Humidity | Pressure | Rain* | Wind** | Luminosity | Snow |
|---|---|---|---|---|---|---|---|
| 1788141232 | 30° C | 36% | 1184.8 hPa | 0 mm | - | 2 W/m² | - |
| 1788140927 | 30° C | 35% | 1185.3 hPa | 0 mm | - | 4 W/m² | - |
| 1788140621 | 30° C | 36% | 1185.2 hPa | 0 mm | - | 7 W/m² | - |
| 1788140318 | 30° C | 35% | 1184.9 hPa | 0 mm | - | 9 W/m² | - |
| 1788140012 | 30.56° C | 35% | 1185 hPa | 0 mm | - | 11 W/m² | - |
| 1788139707 | 30.56° C | 35% | 1184.8 hPa | 0 mm | - | 13 W/m² | - |
| 1788139403 | 30.56° C | 35% | 1184.8 hPa | 0 mm | - | 16 W/m² | - |
| 1788139102 | 30.56° C | 35% | 1184.7 hPa | 0 mm | - | 19 W/m² | - |
| 1788138797 | 30.56° C | 35% | 1184.6 hPa | 0 mm | - | 23 W/m² | - |
| 1788138493 | 31.11° C | 35% | 1184.6 hPa | 0 mm | - | 29 W/m² | - |
| 1788138193 | 31.67° C | 35% | 1184.9 hPa | 0 mm | - | 54 W/m² | - |
| 1788137889 | 32.22° C | 34% | 1184.7 hPa | 0 mm | - | 47 W/m² | - |
| 1788137584 | 32.22° C | 32% | 1184.8 hPa | 0 mm | - | 90 W/m² | - |
| 1788137278 | 32.22° C | 32% | 1184.7 hPa | 0 mm | - | 113 W/m² | - |
| 1788136975 | 32.78° C | 32% | 1184.7 hPa | 0 mm | - | 129 W/m² | - |
| 1788136670 | 32.78° C | 31% | 1184.9 hPa | 0 mm | - | 145 W/m² | - |
| 1788136366 | 32.78° C | 31% | 1184.7 hPa | 0 mm | - | 165 W/m² | - |
| 1788136065 | 32.22° C | 32% | 1184.9 hPa | 0 mm | - | 184 W/m² | - |
| 1788135759 | 32.78° C | 31% | 1184.7 hPa | 0 mm | - | 203 W/m² | - |
| 1788135455 | 32.78° C | 30% | 1184.7 hPa | 0 mm | - | 221 W/m² | - |
| 1788135150 | 32.78° C | 31% | 1184.9 hPa | 0 mm | - | 250 W/m² | - |
| 1788134847 | 32.78° C | 31% | 1184.7 hPa | 0 mm | - | 273 W/m² | - |
| 1788134542 | 32.78° C | 30% | 1184.9 hPa | 0 mm | - | 295 W/m² | - |
| 1788134241 | 32.78° C | 30% | 1184.9 hPa | 0 mm | - | 322 W/m² | - |
| 1788133936 | 33.33° C | 30% | 1184.8 hPa | 0 mm | - | 340 W/m² | - |
* Rain latest hour (hover to see other rain measurements)
** Current wind speed in m/s (hover to see current wind gust speed)